Regional Weather Roundup
Issued by NWS

Home | Current Version | Previous Version | Graphics & Text | Print | Product List | Glossary On
Versions: 1 2 3 4 5 6 7 8 9 10 11 12 13 14 15 16 17 18 19 20 21 22 23 24 25 26 27 28 29 30 31 32 33 34 35 36 37 38 39 40 41 42 43 44 45 46 47 48 49 50
000
ASUS45 KABQ 271301
RWRNM
NEW MEXICO REGIONAL WEATHER ROUNDUP
NATIONAL WEATHER SERVICE ALBUQUERQUE NM
700 AM MDT TUE SEP 27 2016

NOTE: "FAIR" MEANS FEW OR NO CLOUDS BELOW 12,000 FEET AGL WITH NO
       SIGNIFICANT WEATHER OR OBSTRUCTIONS TO VISION.

      THIS PRODUCT IS RELEASED AS TWO VERSIONS.  ONE VERSION NEAR
      THE TOP OF THE HOUR CONTAINING PRELIMINARY DATA FROM ALBUQUERQUE
      AND OTHER STATIONS.  A FINAL VERSION WITH ADDITIONAL DATA IS
      ISSUED ABOUT 10 MINUTES AFTER THE HOUR.

NMZ501-503-504-510>518-271400-
NORTHWEST PLATEAU/NORTHCENTRAL MOUNTAINS

CITY           SKY/WX    TMP DP  RH WIND       PRES   REMARKS
FARMINGTON     FAIR      46  37  71 E10       30.31R
LOS ALAMOS     FAIR      48  31  50 N5        30.40S
SANTA FE       FAIR      43  33  68 N12       30.35S
TAOS           FAIR      30  21  69 N7        30.40F WCI  23
ANGEL FIRE     FAIR      24  22  91 CALM      30.49S

$$
NMZ402-403-502-505>509-271400-
WESTCENTRAL MOUNTAINS/SOUTHWEST MOUNTAINS

CITY           SKY/WX    TMP DP  RH WIND       PRES   REMARKS
GALLUP         CLOUDY    49  28  44 CALM      30.33S
SILVER CITY    CLOUDY    52  45  78 SE3       30.30R

$$
NMZ407-409-411-412-271400-
SOUTHERN DESERTS

CITY           SKY/WX    TMP DP  RH WIND       PRES   REMARKS
DEMING         CLOUDY    54  50  86 E9        30.27S
LAS CRUCES     CLOUDY    53  52  95 W3        30.29S
HOLLOMAN AFB   FAIR      51  51 100 N3        30.27R
ALAMOGORDO     FAIR      50  50 100 NE6         N/A
T OR C         CLOUDY    54  53  97 CALM      30.29R

$$
NMZ519>523-271400-
CENTRAL VALLEYS/CENTRAL HIGHLANDS

CITY           SKY/WX    TMP DP  RH WIND       PRES   REMARKS
ALBUQUERQUE    FAIR      51  35  54 N13       30.30S
DOUBLE EAGLE   MOCLDY    45  34  65 CALM      30.33R
CLINES CORNERS MOCLDY    48  33  56 CALM      30.37S
BELEN          CLOUDY    52  43  72 NW3       30.31R
SOCORRO        FAIR      48  46  91 S3        30.30R

$$
NMZ524>526-539-540-271400-
SOUTHCENTRAL MOUNTAINS

CITY           SKY/WX    TMP DP  RH WIND       PRES   REMARKS
RUIDOSO        MOCLDY    45  32  61 SW8       30.37S

$$
NMZ527>531-271400-
NORTHEAST HIGHLANDS/NORTHEAST PLAINS

CITY           SKY/WX    TMP DP  RH WIND       PRES   REMARKS
LAS VEGAS      FAIR      38  32  79 NE8       30.37S WCI  32
RATON          FAIR      35  31  85 NE12      30.34F WCI  27
CLAYTON        FAIR      49  37  63 W9        30.26

$$
NMZ532>537-271400-
EASTCENTRAL PLAINS

CITY           SKY/WX    TMP DP  RH WIND       PRES   REMARKS
TUCUMCARI      FAIR      46  37  71 W7        30.25S
CANNON AFB     PTCLDY    49  42  75 NW8       30.26S
CLOVIS AIRPORT FAIR      48  39  71 NW6       30.27S

$$
NMZ028-029-538-271400-
SOUTHEAST PLAINS

CITY           SKY/WX    TMP DP  RH WIND       PRES   REMARKS
ROSWELL        CLOUDY    54  49  83 CALM      30.26R
ARTESIA        FAIR      50  50 100 SW3       30.26S
CARLSBAD       FAIR      49  49 100 SW3       30.24S
HOBBS          MOCLDY    52  52 100 W5        30.26S


$$




USA.gov is the U.S. government's official web portal to all federal, state and local government web resources and services.